Погода в Росоше

Украина / Винницкая область     49°14′38″N   29°11′20″E
темп.,
°C
ветер,
м/с
пор.,
м/с
влажн.,
%
обл.,
%
осадки,
мм/ч
давл.,
гПа
погр.,
м
19 апреля, пн
пн1900:00+8в2484100 0.0 1018165
03:00+7всв2387100 0.0 1017109
06:00+6всв349299 0.0 1017192
09:00+7всв3477100 0.0 1017416
12:00+11всв4459100 0.0 10161175
15:00+12всв4451100 0.1 10151829
18:00+10всв5763100 0.1 1015713
21:00+8всв4869100 0.1 1015362
20 апреля, вт
вт2000:00+8св2571100 0.0 1014152
03:00+7св3676100 0.1 1012171
06:00+6с4680100 0.1 1011161
09:00+8ссв577697 0.3 1011532
12:00+10ссв7871100 0.9 10101067
15:00+10с6768100 1.4 10091163
18:00+10ссз6762100 0.1 10091487
21:00+6ссз3875100 0.1 1010239
21 апреля, ср
ср2100:00+5зсз3683100 0.0 1011127
03:00+5зсз488354 0.0 1011210
06:00+3зсз35907 0.0 1012102
09:00+8з3570100 0.0 1013436
12:00+11з4561100 0.6 10131338
15:00+12з5659100 1.8 10131433
18:00+12зюз5765100 0.9 10131065
21:00+8юз358134 1.1 101480
22 апреля, чт
чт2200:00+7юз3585100 0.0 101578
03:00+6юз368850 0.0 101697
06:00+5зюз349064 0.0 101660
09:00+10юз34725 0.0 1017330
12:00+14юз45555 0.1 10171458
15:00+16юз5646100 0.4 10162306
18:00+13ююз366391 0.0 1016132
21:00+12зюз366795 0.1 1016126
23 апреля, пт
пт2300:00+8всв228919 0.0 101617
03:00+9ю387895 0.0 1015158
06:00+7ю499065 0.4 1014172
09:00+4сз71295100 0.1 1017612
12:00+5сз5777100 2.9 1019976
15:00+9зсз685294 3.0 10181893
18:00+10зсз585313 0.1 10181836
21:00+5з37765 0.2 1021119